Powrót do katalogu

FENGYUN 1C DEB

AktywnySSO
NORAD 37906·DEBRIS·🇨🇳 China

Wystrzelony May 10, 1999 z Taiyuan Satellite Launch Center

Loading…

Następne Przeloty (najbliższe 24 godziny)

TLE

Starzejące sięSource: Space-Track

Epoka: Sep 4, 2026, 09:13 UTC

1 37906U 99025ENF 26247.38455071  .00000123  00000-0  14419-3 0  9992
2 37906  99.5759 297.1806 0163274  50.4474  14.0547 13.81078273631226

Śledź FENGYUN 1C DEB w czasie rzeczywistym z AllMySat

Download on the App Store